DW8397 Weather Reports


time (UTC)temp
F
wind
direction
speed
knots
gust
knots
rain 1hr
in
rain 24hr
in
rain mn
in
humidity
%
barometer
mb
20260510150018 58 252 0.0 2.6 0.00 0.26 0.00 81 1011.2
20260510144523 58 194 0.0 3.5 0.00 0.30 0.00 79 1011.0
20260510143017 58 181 0.0 4.3 0.00 0.30 0.00 82 1010.8
20260510141512 57 210 0.0 3.5 0.00 0.30 0.00 90 1010.9
20260510140012 52 171 0.0 1.7 0.00 0.30 0.00 93 1011.0
20260510134504 51 190 0.0 3.5 0.00 0.30 0.00 93 1011.1
20260510133100 49 190 0.0 1.7 0.00 0.30 0.00 93 1011.1
20260510131557 48 188 0.0 4.3 0.00 0.30 0.00 94 1011.3
20260510130105 48 206 0.0 1.7 0.00 0.30 0.00 94 1011.4
20260510124559 48 204 0.0 0.0 0.00 0.30 0.00 94 1011.3
20260510123055 47 174 0.0 2.6 0.00 0.30 0.00 94 1010.9
20260510121549 46 137 0.0 0.0 0.00 0.30 0.00 94 1011.2
20260510120045 45 133 0.0 0.0 0.00 0.30 0.00 94 1011.2
20260510114545 45 132 0.0 0.0 0.00 0.30 0.00 94 1011.2
20260510113045 45 132 0.0 1.7 0.00 0.30 0.00 94 1011.2
20260510111539 44 107 0.0 0.0 0.00 0.30 0.00 94 1010.9
20260510110037 44 107 0.0 0.0 0.00 0.30 0.00 94 1010.8
20260510104537 44 107 0.0 0.0 0.00 0.30 0.00 94 1010.7
20260510103037 44 105 0.0 0.0 0.00 0.30 0.00 94 1010.5
20260510101532 43 105 0.0 0.0 0.00 0.30 0.00 94 1010.2
20260510100033 43 105 0.0 0.0 0.00 0.30 0.00 94 1009.9
20260510094532 44 105 0.0 0.0 0.00 0.30 0.00 94 1009.3
20260510093030 44 106 0.0 0.0 0.00 0.30 0.00 94 1009.2
20260510091531 44 106 0.0 0.0 0.00 0.30 0.00 94 1009.3
20260510090028 44 106 0.0 0.0 0.00 0.30 0.00 94 1009.2
20260510084525 45 106 0.0 0.0 0.00 0.30 0.00 94 1009.2
20260510083022 45 106 0.0 0.0 0.00 0.30 0.00 94 1009.6
20260510081520 45 106 0.0 0.0 0.00 0.30 0.00 94 1010.2
20260510080122 45 106 0.0 1.7 0.00 0.30 0.00 94 1010.0
20260510074520 45 58 0.0 0.0 0.00 0.30 0.00 94 1010.4
20260510073027 44 54 0.0 0.0 0.00 0.30 0.00 94 1010.2
20260510071518 44 54 0.0 0.0 0.00 0.30 0.00 94 1010.2
20260510070019 44 54 0.0 0.0 0.00 0.30 0.00 94 1010.2
20260510064536 45 54 0.0 0.0 0.00 0.30 0.00 94 1009.9
20260510063020 44 146 0.0 0.0 0.00 0.30 0.00 94 1010.3
20260510061516 44 146 0.0 0.0 0.00 0.30 0.00 94 1010.1
20260510060015 45 142 0.0 0.0 0.00 0.30 0.00 94 1010.0
20260510054515 45 142 0.0 0.0 0.00 0.30 0.00 94 1010.3
20260510053034 45 142 0.0 0.0 0.00 0.30 0.00 94 1010.1
20260510051513 45 142 0.0 0.0 0.00 0.30 0.00 94 1010.2
20260510050015 45 142 0.0 0.0 0.00 0.30 0.00 93 1010.2
20260510044511 45 142 0.0 0.0 0.00 0.30 0.00 93 1010.4
20260510043010 45 142 0.0 0.0 0.00 0.30 0.00 93 1010.6
20260510041509 45 142 0.0 3.5 0.00 0.30 0.00 93 1010.5
20260510040007 45 163 0.0 0.9 0.00 0.30 0.00 93 1010.5
20260510034507 45 157 0.0 3.5 0.00 0.30 0.30 93 1010.7
20260510033005 45 132 0.0 0.0 0.00 0.30 0.30 93 1010.6
20260510031504 45 148 0.0 3.5 0.00 0.30 0.30 93 1010.6
20260510030004 45 140 0.0 0.0 0.00 0.30 0.30 93 1010.8
20260510024504 45 134 0.0 2.6 0.00 0.30 0.30 93 1010.6
20260510023003 45 146 0.0 2.6 0.00 0.30 0.30 93 1010.8
20260510021502 45 148 0.0 0.0 0.00 0.30 0.30 93 1010.7
20260510020002 45 148 0.0 0.0 0.00 0.30 0.30 93 1011.1
20260510014502 45 148 0.0 0.0 0.00 0.30 0.30 93 1011.0
20260510013001 45 148 0.0 0.0 0.00 0.30 0.30 93 1011.0
20260510011503 45 148 0.0 0.9 0.00 0.30 0.30 93 1011.0
20260510010100 45 149 0.0 2.6 0.00 0.30 0.30 93 1011.0
20260510004600 44 117 0.0 1.7 0.00 0.30 0.30 93 1010.8
20260510003107 44 162 0.0 0.0 0.00 0.30 0.30 93 1010.8
20260510001600 44 162 0.0 0.0 0.00 0.30 0.30 93 1010.6
20260510000127 44 163 0.0 0.0 0.00 0.30 0.30 93 1010.5
20260509234558 44 153 0.0 0.0 0.00 0.30 0.30 93 1010.3
20260509233059 44 117 0.0 2.6 0.00 0.30 0.30 93 1010.2
20260509231614 44 104 0.0 4.3 0.00 0.30 0.30 93 1010.1
20260509230105 44 130 0.0 3.5 0.00 0.30 0.30 93 1010.2
20260509224556 44 175 0.0 2.6 0.00 0.30 0.30 93 1010.2
20260509223104 44 148 0.0 2.6 0.00 0.30 0.30 93 1010.2
20260509221607 44 107 0.0 0.0 0.00 0.30 0.30 93 1010.4
20260509220054 44 128 0.0 4.3 0.00 0.30 0.30 93 1010.4
20260509214601 44 155 0.0 2.6 0.00 0.30 0.30 93 1010.4
20260509213052 44 155 0.0 0.0 0.00 0.30 0.30 93 1010.6
20260509211551 44 156 0.0 0.0 0.00 0.30 0.30 93 1010.7
20260509210051 44 172 0.0 0.0 0.01 0.30 0.30 93 1010.7
20260509204549 44 172 0.0 0.0 0.01 0.30 0.30 93 1010.9
20260509203048 44 172 0.0 0.0 0.02 0.30 0.30 93 1010.9
20260509201548 45 144 0.0 0.0 0.02 0.28 0.28 93 1011.0
20260509200054 45 140 0.0 0.0 0.03 0.28 0.28 93 1010.9
20260509194551 44 140 0.0 0.0 0.03 0.28 0.28 93 1010.9
20260509193044 44 141 0.0 0.0 0.03 0.28 0.28 93 1011.1
20260509191542 44 109 0.0 0.0 0.03 0.27 0.27 93 1011.3
20260509190040 44 143 0.0 3.5 0.04 0.26 0.26 93 1011.4
20260509184541 44 148 0.9 5.2 0.06 0.26 0.26 93 1011.5
20260509183057 44 154 0.9 8.7 0.06 0.25 0.25 93 1011.4
20260509181538 44 137 1.7 7.0 0.07 0.24 0.24 93 1011.4
20260509180037 43 146 0.0 6.1 0.06 0.22 0.22 93 1011.4
20260509174546 44 136 1.7 6.1 0.05 0.20 0.20 93 1011.7
20260509173036 44 175 1.7 8.7 0.06 0.19 0.19 93 1011.8
20260509171540 44 163 0.0 4.3 0.06 0.17 0.17 93 1012.0
20260509170033 44 200 0.0 0.0 0.06 0.16 0.16 93 1012.1
20260509164530 44 200 0.0 0.0 0.07 0.15 0.15 93 1012.2
20260509163042 44 200 0.0 3.5 0.06 0.13 0.13 93 1012.5
20260509161539 43 186 0.0 6.1 0.05 0.11 0.11 92 1012.6
20260509160027 44 178 0.9 3.5 0.06 0.10 0.10 92 1012.9
20260509154526 44 98 0.0 3.5 0.05 0.08 0.08 92 1013.1
20260509153042 43 140 0.0 2.6 0.05 0.07 0.07 92 1013.2
20260509151525 43 162 0.0 0.0 0.05 0.06 0.06 91 1013.3